Bingham Lake, MN

7:45 PM CST on December 05, 2016 (GMT -0600)
Windom Municipal

Weather History for KMWM - May, 2014

Change the Weather History Date:

Monday, May 5, 2014

  Actual Average Record
Temperature  
Mean Temperature 52 °F -  
Max Temperature 66 °F 69 °F 90 °F (1952)
Min Temperature 37 °F 43 °F 27 °F (1954)
Degree Days  
Heating Degree Days 14    
Growing Degree Days 2 (Base 50)    
Moisture  
Dew Point 35 °F    
Average Humidity 55    
Maximum Humidity 87    
Minimum Humidity 30    
Precipitation  
Precipitation 0.00 in - - ()
Sea Level Pressure  
Sea Level Pressure 29.93 in    
Wind  
Wind Speed 6 mph (East)    
Max Wind Speed 15 mph    
Max Gust Speed 20 mph    
Visibility 10 miles    
Events      
Averages and records for this station are not official NWS values.
T = Trace of Precipitation, MM = Missing Value Source: NWS Daily Summary

Daily Weather History Graph

Daily Weather History Graph

Search for Another Location

Airport or City:

Trip Planner

Search our weather history database for the weather conditions in past years. The results will help you decide how hot, cold, wet, or windy it might be!

Date:

Astronomy

May. 05, 2014 Rise Set
Actual Time 6:06 AM CDT 8:28 PM CDT
Civil Twilight 5:34 AM CDT 9:00 PM CDT
Nautical Twilight 4:54 AM CDT 9:40 PM CDT
Astronomical Twilight 4:10 AM CDT 10:25 PM CDT
Moon 11:27 AM CDT (5/5) 1:12 AM CDT (5/5)
Length of Visible Light 15h 25m
Length of Day
14h 21m
Waxing Crescent, 37% of the Moon is Illuminated
May 5
Waxing Crescent
May 6
First Quarter
May 14
Full
May 21
Last Quarter
May 28
New

Hourly Weather History & Observations

Time (CDT) Temp. Windchill Dew Point Humidity Pressure Visibility Wind Dir Wind Speed Gust Speed Precip Events Conditions
12:12 AM 41.0 °F - 33.8 °F 76% 29.97 in 10.0 mi Calm Calm - N/A   Clear
12:32 AM 41.0 °F - 33.8 °F 76% 29.97 in 10.0 mi Calm Calm - N/A   Clear
1:12 AM 42.8 °F 41.1 °F 33.8 °F 70% 29.96 in 10.0 mi NE 3.5 mph - N/A   Clear
1:32 AM 41.0 °F 38.0 °F 33.8 °F 76% 29.95 in 10.0 mi NE 4.6 mph - N/A   Clear
1:53 AM 41.0 °F 37.1 °F 33.8 °F 76% 29.96 in 10.0 mi NE 5.8 mph - N/A   Clear
2:12 AM 41.0 °F 36.4 °F 33.8 °F 76% 29.94 in 10.0 mi NE 6.9 mph - N/A   Clear
2:32 AM 42.8 °F 41.1 °F 33.8 °F 70% 29.96 in 10.0 mi NNE 3.5 mph - N/A   Clear
2:53 AM 39.2 °F 35.0 °F 33.8 °F 81% 29.95 in 10.0 mi NE 5.8 mph - N/A   Clear
3:12 AM 41.0 °F 38.0 °F 33.8 °F 76% 29.94 in 10.0 mi NE 4.6 mph - N/A   Clear
3:32 AM 41.0 °F 36.4 °F 33.8 °F 76% 29.94 in 10.0 mi NE 6.9 mph - N/A   Clear
3:53 AM 41.0 °F 35.8 °F 33.8 °F 76% 29.92 in 10.0 mi NE 8.1 mph - N/A   Clear
4:12 AM 39.2 °F 35.9 °F 33.8 °F 81% 29.93 in 10.0 mi ENE 4.6 mph - N/A   Clear
4:32 AM 37.4 °F 32.8 °F 32.0 °F 81% 29.93 in 10.0 mi ENE 5.8 mph - N/A   Clear
4:52 AM 37.4 °F 33.8 °F 32.0 °F 81% 29.93 in 10.0 mi NE 4.6 mph - N/A   Clear
5:12 AM 39.2 °F 35.9 °F 33.8 °F 81% 29.94 in 10.0 mi NE 4.6 mph - N/A   Clear
5:33 AM 37.4 °F 33.8 °F 33.8 °F 87% 29.94 in 10.0 mi ENE 4.6 mph - N/A   Clear
5:52 AM 37.4 °F 33.8 °F 33.8 °F 87% 29.94 in 10.0 mi ENE 4.6 mph - N/A   Clear
6:12 AM 37.4 °F 32.8 °F 33.8 °F 87% 29.94 in 10.0 mi ENE 5.8 mph - N/A   Clear
6:33 AM 37.4 °F 32.1 °F 33.8 °F 87% 29.94 in 10.0 mi East 6.9 mph - N/A   Clear
6:52 AM 39.2 °F 34.2 °F 33.8 °F 81% 29.94 in 10.0 mi East 6.9 mph - N/A   Clear
7:12 AM 42.8 °F 39.3 °F 35.6 °F 76% 29.94 in 10.0 mi East 5.8 mph - N/A   Clear
7:33 AM 44.6 °F 41.4 °F 35.6 °F 71% 29.95 in 10.0 mi East 5.8 mph - N/A   Clear
7:52 AM 46.4 °F 42.4 °F 35.6 °F 66% 29.94 in 10.0 mi East 8.1 mph - N/A   Clear
8:12 AM 48.2 °F - 35.6 °F 62% 29.95 in 10.0 mi East 6.9 mph - N/A   Clear
8:33 AM 50.0 °F - 35.6 °F 58% 29.97 in 10.0 mi ESE 10.4 mph - N/A   Clear
8:52 AM 51.8 °F - 35.6 °F 54% 29.97 in 10.0 mi East 8.1 mph - N/A   Clear
9:12 AM 51.8 °F - 35.6 °F 54% 29.96 in 10.0 mi ESE 8.1 mph - N/A   Clear
9:33 AM 53.6 °F - 35.6 °F 51% 29.96 in 10.0 mi ESE 9.2 mph - N/A   Clear
9:52 AM 53.6 °F - 35.6 °F 51% 29.95 in 10.0 mi SSE 9.2 mph - N/A   Clear
10:12 AM 53.6 °F - 35.6 °F 51% 29.96 in 10.0 mi SSE 9.2 mph - N/A   Clear
10:33 AM 55.4 °F - 35.6 °F 47% 29.96 in 10.0 mi SE 6.9 mph - N/A   Clear
10:52 AM 57.2 °F - 33.8 °F 41% 29.95 in 10.0 mi ESE 6.9 mph - N/A   Clear
11:13 AM 59.0 °F - 35.6 °F 42% 29.95 in 10.0 mi SE 8.1 mph - N/A   Clear
11:32 AM 57.2 °F - 33.8 °F 41% 29.95 in 10.0 mi ESE 9.2 mph - N/A   Clear
11:53 AM 59.0 °F - 33.8 °F 39% 29.95 in 10.0 mi ENE 8.1 mph - N/A   Clear
12:12 PM 60.8 °F - 35.6 °F 39% 29.95 in 10.0 mi East 5.8 mph - N/A   Clear
12:32 PM 60.8 °F - 33.8 °F 36% 29.95 in 10.0 mi ENE 3.5 mph - N/A   Clear
1:12 PM 60.8 °F - 33.8 °F 36% 29.94 in 10.0 mi East 3.5 mph - N/A   Clear
1:32 PM 62.6 °F - 35.6 °F 37% 29.94 in 10.0 mi Calm Calm - N/A   Clear
1:53 PM 62.6 °F - 35.6 °F 37% 29.93 in 10.0 mi East 5.8 mph - N/A   Clear
2:12 PM 62.6 °F - 35.6 °F 37% 29.93 in 10.0 mi East 5.8 mph - N/A   Clear
2:32 PM 64.4 °F - 35.6 °F 34% 29.92 in 10.0 mi NE 8.1 mph - N/A   Clear
2:53 PM 64.4 °F - 35.6 °F 34% 29.91 in 10.0 mi East 9.2 mph - N/A   Clear
3:12 PM 64.4 °F - 35.6 °F 34% 29.91 in 10.0 mi ENE 11.5 mph 18.4 mph N/A   Clear
3:32 PM 66.2 °F - 35.6 °F 32% 29.90 in 10.0 mi ENE 6.9 mph - N/A   Clear
3:53 PM 66.2 °F - 33.8 °F 30% 29.89 in 10.0 mi ENE 10.4 mph 18.4 mph N/A   Clear
4:12 PM 66.2 °F - 35.6 °F 32% 29.89 in 10.0 mi NE 9.2 mph 16.1 mph N/A   Clear
4:53 PM 66.2 °F - 35.6 °F 32% 29.89 in 10.0 mi East 9.2 mph 16.1 mph N/A   Clear
5:12 PM 66.2 °F - 35.6 °F 32% 29.88 in 10.0 mi ENE 11.5 mph - N/A   Clear
5:32 PM 66.2 °F - 35.6 °F 32% 29.88 in 10.0 mi ENE 11.5 mph 16.1 mph N/A   Clear
5:52 PM 66.2 °F - 35.6 °F 32% 29.88 in 10.0 mi ENE 11.5 mph 17.3 mph N/A   Clear
6:12 PM 64.4 °F - 37.4 °F 37% 29.89 in 10.0 mi East 9.2 mph - N/A   Clear
6:32 PM 64.4 °F - 35.6 °F 34% 29.87 in 10.0 mi East 15.0 mph 19.6 mph N/A   Clear
6:52 PM 64.4 °F - 37.4 °F 37% 29.88 in 10.0 mi ENE 11.5 mph 17.3 mph N/A   Clear
7:12 PM 62.6 °F - 37.4 °F 39% 29.88 in 10.0 mi ENE 11.5 mph - N/A   Clear
7:33 PM 62.6 °F - 37.4 °F 39% 29.88 in 10.0 mi East 10.4 mph 17.3 mph N/A   Clear
7:52 PM 62.6 °F - 37.4 °F 39% 29.89 in 10.0 mi East 8.1 mph - N/A   Clear
8:12 PM 60.8 °F - 37.4 °F 42% 29.89 in 10.0 mi East 5.8 mph - N/A   Clear
8:33 PM 57.2 °F - 37.4 °F 48% 29.89 in 10.0 mi East 8.1 mph - N/A   Clear
8:52 PM 57.2 °F - 37.4 °F 48% 29.88 in 10.0 mi East 8.1 mph - N/A   Clear
9:12 PM 55.4 °F - 37.4 °F 51% 29.88 in 10.0 mi East 5.8 mph - N/A   Clear
9:33 PM 55.4 °F - 37.4 °F 51% 29.89 in 10.0 mi East 6.9 mph - N/A   Clear
10:12 PM 51.8 °F - 37.4 °F 58% 29.90 in 10.0 mi East 6.9 mph - N/A   Clear
10:30 PM 50.0 °F - 37.4 °F 62% 29.91 in 10.0 mi East 6.9 mph - N/A   Clear
11:12 PM 48.2 °F - 37.4 °F 66% 29.90 in 10.0 mi East 6.9 mph - N/A   Clear
11:33 PM 48.2 °F - 37.4 °F 66% 29.91 in 10.0 mi East 5.8 mph - N/A   Clear
11:52 PM 50.0 °F - 37.4 °F 62% 29.91 in 10.0 mi East 4.6 mph - N/A   Clear